COSMOS 2251 DEB, 34792

Orbit data source: Space-Track

COSMOS 2251 DEB, 34792 is space debris in LEO originally from a launch on Wed, 16 Jun 1993 UTC launched from the Plesetsk Missile And Space Complex (PKMTR). The debris from Iridium 33, an American commercial communications satellite, has been tracked extensively since its accidental collision with the defunct Russian satellite Cosmos 2251 in 2009. This event, occurring at high speed in low Earth orbit (LEO), generated thousands of pieces of space debris, significantly increasing the risk of further collisions. The Iridium 33 debris cloud has impacted space traffic management and orbital debris mitigation strategies, making it a subject of ongoing study in space situational awareness.

Loading next visibility...
Identifier
34792, 1993-036AAV
Orbit
LEO
Country
Flag of CISCIS
Related business
Manufacturer
Unknown
Mission
Spacecraft
Bus & Motor
Unknown
Mass
Unknown
Launch date (UTC)
1993-06-16 (33 years ago)
Launch vehicle
Unknown
Launch site
Plesetsk Missile And Space Complex (PKMTR)
Object type
Payload
Rocket body
Debris
Shape & HBR
Unknown shape, 0.1 m
Radar Cross Section
Small (<0.1 m²)

Expand to show TLE details & history
Last TLE update: 11 hours ago

TLE from 11 hours ago
0 COSMOS 2251 DEB
1 34792U 93036AAV 26121.36807325  .00004664  00000-0  10371-2 0  9996
2 34792  74.0172 264.4007 0011848 328.0909  59.9961 14.57222150896836
Epoch: 2026-05-01T08:50Z
TLE epoch observation values (Epoch: 2026-05-01T08:50:01.528Z)
Latitude
27.06899°
Longitude
-79.03577°
Altitude
700.982 km
Speed
7.51 km/s
True Right ascension
18h 11m 05s
True Declination
26° 55' 44"
Sunlit
Object was in daylight at epoch
Visualization orbit readout
Latitude
Unknown
Longitude
Unknown
Altitude
Unknown
Speed
Unknown
Apparent Right ascension
Unknown
Apparent Declination
Unknown
Sunlit
N/A
Visualization observer readout
Local Sidereal Time
03:25:32
Azimuth
Unknown
Elevation
Unknown
Doppler factor
Unknown
Orbital elements
Apogee altitude
708.146 km
Perigee altitude
691.374 km
Semi-major axis
7,077.897 km
Eccentricity
0.00118
Inclination
74.0172°
RAAN
264.4007°
Arg. of periapsis
328.0909°
True anomaly
60.11376°
Mean anomaly
59.9961°
Eccentric anomaly
60.05492°
Mean motion
3.64491 °/min
Orbital period
98.77 mins
BSTAR
0.0010371
Loading maneuver chart data...
Computing Atmospheric mass density...

Documentation

Showing up to 5 results
|